Regional Weather Roundup
Issued by NWS

Home | Current Version | Previous Version | Graphics & Text | Print | Product List | Glossary On
Versions: 1 2 3 4 5 6 7 8 9 10 11 12 13 14 15 16 17 18 19 20 21 22 23 24 25 26 27 28 29 30 31 32 33 34 35 36 37 38 39 40 41 42 43 44 45 46 47 48 49 50
000
ASUS43 KDTX 061110
RWRMI
MICHIGAN HOURLY REGIONAL WEATHER ROUNDUP
NATIONAL WEATHER SERVICE DETROIT/PONTIAC MI
700 AM EDT MON JUL 06 2015

NOTE: "FAIR" INDICATES FEW OR NO CLOUDS BELOW 12,000 FEET WITH NO
SIGNIFICANT WEATHER AND/OR OBSTRUCTION TO VISIBILITY.

MIZ047>049-052>055-059>063-066>070-074>076-081>083-061200-
SOUTHEAST LOWER MICHIGAN

CITY           SKY/WX    TMP DP  RH WIND       PRES   REMARKS
ADRIAN         CLEAR     58  56  93 NW7       30.09S FOG
ALMA           CLEAR     61  58  92 SE5       30.04S
ANN ARBOR      FOG       52  51  97 CALM      30.07S VSB 1/4
BAD AXE        CLEAR     57  52  84 CALM      30.07S
CARO           CLEAR     54  53  98 CALM      30.06S FOG
DETROIT CITY   CLEAR     62  56  80 CALM      30.07F
DETROIT        PTCLDY    62  59  90 CALM      30.07F FOG
FLINT          CLEAR     59  55  87 CALM      30.06F FOG
GROSSE ILE     CLEAR     63  59  88 CALM      30.06F FOG
HILLSDALE      CLEAR     60  60 100 CALM      30.08R FOG
HOWELL           N/A     58  58  98 SE5       30.06F FOG

CITY           SKY/WX    TMP DP  RH WIND       PRES   REMARKS
JACKSON        CLEAR     59  56  89 CALM      30.07S
LAMBERTVILLE   CLEAR     59  57  92 CALM      30.07F FOG
LANSING        CLEAR     62  57  83 CALM      30.06R
LAPEER         FAIR      52  51  96 CALM      30.07F FOG
MASON          CLEAR     58  56  93 S3        30.06S FOG
MONROE         FOG       58  57  99 CALM      30.06F VSB<1/4
MT. CLEMENS    CLEAR     58  56  93 NW1       30.05F
PONTIAC        CLEAR     58  56  93 CALM      30.06F FOG
PORT HOPE        N/A     63  54  72 SW7       30.03F
PORT HURON     MOCLDY    54  54 100 CALM      30.08S FOG
TRI CITIES     CLEAR     63  57  81 S8        30.05F
MIDLAND        FAIR      61  56  85 S3        30.03S
TROY           CLEAR     63  58  86 CALM      30.09S
SAGINAW HB     CLEAR     61  61 100 S7        30.04F
$$
MIZ043>046-050>051-056>058-064>065-071>073-077>080-061200-
SOUTHWEST LOWER MICHIGAN

CITY           SKY/WX    TMP DP  RH WIND       PRES   REMARKS
BATTLE CREEK   CLEAR     63  59  87 S5        30.07R
BENTON HARBOR  CLEAR     64  61  90 SE5       30.01F FOG
BIG RAPIDS     CLEAR     59  56  92 CALM      30.01R FOG
COLDWATER      CLEAR     60  59  96 CALM      30.08R FOG
FREMONT        FAIR      63  61  94 CALM      30.00R
HOLLAND        CLEAR     63  60  90 S6        30.01F FOG
GRAND RAPIDS   PTCLDY    61  59  93 S9        30.02F FOG
IONIA          FAIR      61  59  94 S7        30.03S FOG
KALAMAZOO      CLEAR     64  59  83 SE5       30.06S HAZE
LUDINGTON      PTCLDY    67  61  81 S6        29.99R
MARSHALL       CLEAR     60  58  92 CALM      30.06S
MOUNT PLEASANT CLEAR     63  58  85 SE3       30.02F
MUSKEGON       PTCLDY    66  60  81 SE6       29.99F
SOUTH HAVEN    CLEAR     65  61  87 S5        30.01F
$$
MIZ016>042-061200-
NORTHERN LOWER MICHIGAN

CITY           SKY/WX    TMP DP  RH WIND       PRES   REMARKS
ALPENA         CLEAR     62  59  90 CALM      30.02R FOG
BEAVER ISLAND  MOCLDY    67  58  74 SW12      29.95S
BELLAIRE       PTCLDY    59  58  96 CALM      29.99R FOG
CADILLAC       CLEAR     64  59  86 S6        30.01R
CHARLEVOIX     PTCLDY    68  60  75 S6        30.00R
FRANKFORT      PTCLDY    73  57  56 S8        29.97R
GAYLORD        CLEAR     66  61  84 S9        30.01R HAZE
GRAYLING       CLEAR     62  60  93 CALM      30.02S FOG
HARBOR SPRINGS PTCLDY    67  61  81 SW3       29.97R
HOUGHTON LAKE  CLEAR     65  60  84 S6        30.03R
MANISTEE       PTCLDY    61  55  82 CALM      29.99R
OSCODA         CLEAR     63  60  90 CALM      30.03R
PELLSTON       PTCLDY    60  58  92 CALM      29.98R FOG
ROGERS CITY    CLEAR     65  62  88 S8        30.00S
TRAVERSE CITY  PTCLDY    66  59  78 S3        29.97R
$$
MIZ007>008-015-061200-
EASTERN UPPER MICHIGAN

CITY           SKY/WX    TMP DP  RH WIND       PRES   REMARKS
KINROSS        CLOUDY    63  61  94 S6        29.97R
MACKINAC ISLAN PTCLDY    64  60  86 S9        29.97R
NEWBERRY       CLOUDY    61  58  90 S9        29.93R
S. S. MARIE    MOCLDY    61  58  90 SE3       29.96R FOG
MUNISING         N/A     71  63  75 S10G20    29.86S
$$
MIZ004>006-011>014-085-061200-
CENTRAL UPPER MICHIGAN

CITY           SKY/WX    TMP DP  RH WIND       PRES   REMARKS
MANISTIQUE     MOCLDY    58  56  94 S8        29.93S FOG
ESCANABA       MOCLDY    66  63  88 S8        29.90S
MENOMINEE      CLOUDY    68  63  83 SW6       29.92S
SAWYER-GWINN   CLEAR     64  63  94 S9        29.87F FOG
$$
MIZ001>003-009>011-084-061200-
WESTERN UPPER MICHIGAN

CITY           SKY/WX    TMP DP  RH WIND       PRES   REMARKS
IRON MOUNTAIN  CLOUDY    66  63  90 S6        29.89S FOG
HOUGHTON       LGT RAIN  67  65  93 W8        29.83R FOG
COPPER HARBOR    N/A     60  59  96 CALM      29.80R
IRONWOOD       CLOUDY    66  66 100 CALM      29.83S
$$

ABBREVIATIONS USED IN REMARKS
   TC - TEMPERATURE IN CELSIUS
  WCI - WIND CHILL INDEX
   HX - HEAT INDEX
  VSB - VISIBILITY




USA.gov is the U.S. government's official web portal to all federal, state and local government web resources and services.